GEFSCGP_prec_meanprecacc_168.txt.gz
Total_Precipitation_Accumulation
0.00 0.00 0.01 0.02 0.03 0.02 0.03 0.08 0.09 0.08 0.08 0.11 0.17 0.21 0.37 0.42 0.48 0.56 0.55 0.71 0.81 0.85 1.13 1.38 1.84 2.55 2.83 3.30 3.23 2.87 2.65 2.59 2.53 2.50 2.55 2.60 2.79 2.97 3.11 3.18 3.04 2.96 2.90 2.90
0.00 0.00 0.00 0.01 0.03 0.02 0.03 0.06 0.07 0.08 0.08 0.11 0.19 0.28 0.42 0.55 0.60 0.63 0.64 0.77 0.78 0.83 1.21 1.60 1.99 2.37 2.59 2.68 2.77 2.99 2.98 2.88 2.76 2.82 3.12 3.54 3.80 3.85 3.93 3.87 3.79 3.66 3.57 3.51
0.01 0.00 0.00 0.00 0.02 0.02 0.02 0.03 0.05 0.08 0.10 0.13 0.24 0.44 0.51 0.60 0.72 0.66 0.59 0.65 0.75 0.91 1.17 1.46 1.81 2.07 2.38 2.69 2.81 3.03 3.12 3.23 3.38 3.59 3.81 4.27 4.60 4.60 4.45 4.09 3.92 3.74 3.48 3.34
0.00 0.00 0.00 0.00 0.01 0.01 0.02 0.02 0.05 0.07 0.08 0.15 0.22 0.49 0.65 0.72 0.75 0.75 0.69 0.70 0.84 1.00 1.20 1.33 1.49 1.66 1.93 2.24 2.53 2.78 2.98 3.25 3.66 4.23 4.55 4.66 4.83 4.79 4.65 4.32 3.94 3.57 3.27 3.04
0.00 0.00 0.00 0.00 0.01 0.01 0.02 0.02 0.03 0.05 0.06 0.16 0.22 0.38 0.79 0.88 0.81 0.81 0.81 0.85 1.01 1.01 1.11 1.18 1.14 1.27 1.56 1.83 2.04 2.40 2.74 3.13 3.69 4.18 4.61 4.83 4.81 4.62 4.43 4.01 3.60 3.29 3.04 2.78
0.01 0.01 0.01 0.01 0.01 0.01 0.01 0.02 0.04 0.06 0.09 0.21 0.20 0.32 0.74 0.97 0.93 0.81 0.75 0.86 1.01 0.95 0.88 0.91 0.95 1.02 1.23 1.44 1.67 1.95 2.35 2.93 3.37 3.78 4.19 4.34 4.36 4.23 4.00 3.61 3.27 3.03 2.82 2.60
0.02 0.02 0.01 0.01 0.01 0.01 0.02 0.04 0.13 0.21 0.24 0.28 0.19 0.36 0.80 1.00 1.03 0.95 0.94 1.03 0.99 0.85 0.75 0.82 0.85 0.98 1.18 1.35 1.60 1.86 2.21 2.63 2.86 3.00 3.23 3.46 3.51 3.48 3.44 3.28 2.99 2.71 2.43 2.12
0.08 0.06 0.02 0.01 0.02 0.02 0.03 0.04 0.19 0.35 0.33 0.31 0.33 0.66 1.08 1.12 1.11 1.04 0.97 0.94 0.88 0.87 0.88 0.90 0.98 1.09 1.29 1.39 1.47 1.62 1.83 2.09 2.23 2.23 2.39 2.59 2.70 2.72 2.69 2.55 2.33 2.08 1.86 1.66
0.10 0.09 0.03 0.02 0.02 0.03 0.02 0.03 0.06 0.12 0.16 0.31 0.60 1.00 1.29 1.29 1.30 1.30 1.19 1.04 0.91 0.86 0.91 0.95 0.97 1.08 1.30 1.38 1.43 1.41 1.38 1.47 1.56 1.62 1.69 1.73 1.77 1.81 1.81 1.74 1.62 1.52 1.38 1.23
0.06 0.08 0.04 0.03 0.02 0.03 0.03 0.04 0.06 0.10 0.25 0.44 0.66 1.12 1.64 1.66 1.49 1.42 1.33 1.13 1.00 0.92 0.90 0.94 0.95 0.96 1.01 1.07 1.16 1.16 1.03 1.06 1.12 1.11 1.10 1.14 1.22 1.31 1.30 1.16 1.11 1.08 1.04 0.96
0.03 0.06 0.05 0.05 0.04 0.04 0.04 0.05 0.06 0.10 0.17 0.35 0.65 1.17 1.44 1.60 1.51 1.38 1.30 1.17 0.98 0.93 0.90 0.87 0.86 0.80 0.74 0.74 0.79 0.87 0.83 0.82 0.82 0.84 0.86 0.85 0.87 0.92 0.95 0.91 0.84 0.80 0.76 0.74
0.04 0.08 0.12 0.10 0.07 0.05 0.06 0.07 0.07 0.14 0.19 0.25 0.53 1.13 1.21 1.44 1.59 1.59 1.41 1.22 1.14 1.01 0.93 0.87 0.86 0.81 0.76 0.71 0.70 0.71 0.72 0.73 0.71 0.68 0.70 0.71 0.70 0.69 0.70 0.73 0.72 0.68 0.67 0.66
0.06 0.14 0.30 0.36 0.25 0.13 0.10 0.09 0.10 0.12 0.21 0.29 0.54 1.15 1.26 1.41 1.61 1.63 1.44 1.32 1.28 1.21 1.13 1.03 0.94 0.87 0.82 0.75 0.69 0.64 0.66 0.70 0.68 0.62 0.62 0.60 0.60 0.58 0.58 0.59 0.58 0.56 0.56 0.57
0.05 0.15 0.37 0.64 0.53 0.26 0.16 0.13 0.16 0.18 0.29 0.36 0.56 0.98 1.23 1.39 1.57 1.64 1.56 1.36 1.30 1.32 1.25 1.09 1.00 0.91 0.85 0.80 0.75 0.71 0.69 0.67 0.63 0.60 0.59 0.56 0.58 0.57 0.55 0.52 0.51 0.50 0.50 0.53
0.09 0.19 0.23 0.28 0.28 0.24 0.19 0.18 0.18 0.21 0.27 0.44 0.67 0.98 1.32 1.44 1.61 1.77 1.80 1.64 1.47 1.41 1.31 1.14 1.09 1.05 0.95 0.93 0.88 0.82 0.76 0.71 0.64 0.60 0.58 0.59 0.61 0.61 0.60 0.60 0.58 0.57 0.54 0.50
0.10 0.19 0.23 0.26 0.25 0.27 0.24 0.22 0.20 0.25 0.32 0.48 0.74 1.12 1.41 1.52 1.59 1.70 1.77 1.68 1.57 1.54 1.51 1.49 1.46 1.42 1.28 1.15 1.06 0.96 0.85 0.79 0.73 0.72 0.70 0.68 0.65 0.61 0.61 0.60 0.59 0.60 0.58 0.55
0.11 0.19 0.28 0.31 0.22 0.33 0.51 0.39 0.34 0.40 0.45 0.59 0.85 1.06 1.20 1.36 1.54 1.57 1.59 1.69 1.69 1.75 1.83 1.83 1.72 1.59 1.44 1.33 1.26 1.17 1.04 0.95 0.91 0.88 0.82 0.73 0.65 0.62 0.58 0.53 0.56 0.60 0.58 0.53
0.13 0.24 0.33 0.39 0.42 0.70 0.67 0.40 0.40 0.55 0.65 0.67 0.74 0.80 0.99 1.24 1.38 1.38 1.46 1.66 1.74 1.73 1.72 1.70 1.59 1.48 1.39 1.34 1.27 1.15 1.03 0.97 0.91 0.87 0.80 0.70 0.60 0.58 0.58 0.58 0.59 0.57 0.53 0.50
0.10 0.25 0.41 0.50 0.70 0.78 0.77 0.49 0.45 0.64 0.84 0.68 0.74 0.76 0.89 1.00 1.16 1.39 1.47 1.59 1.74 1.64 1.58 1.61 1.59 1.49 1.43 1.36 1.23 1.14 1.06 0.95 0.90 0.85 0.71 0.58 0.51 0.51 0.52 0.52 0.52 0.51 0.50 0.49
0.12 0.22 0.47 0.63 0.83 0.96 0.87 0.46 0.36 0.64 1.16 0.85 0.83 0.85 0.87 0.96 1.25 1.37 1.33 1.29 1.35 1.39 1.43 1.54 1.65 1.67 1.59 1.44 1.19 1.10 1.03 0.90 0.78 0.66 0.55 0.49 0.45 0.42 0.40 0.40 0.44 0.45 0.46 0.43
0.36 0.40 0.53 0.76 1.04 1.10 0.57 0.29 0.42 0.93 1.15 0.96 0.90 0.91 0.90 1.02 1.11 1.01 1.00 1.10 1.21 1.33 1.42 1.47 1.53 1.52 1.44 1.31 1.12 1.05 0.96 0.82 0.64 0.51 0.46 0.46 0.40 0.32 0.30 0.35 0.40 0.41 0.37 0.37
0.56 0.68 0.76 0.86 1.11 1.19 0.51 0.36 0.59 0.74 0.64 0.63 0.66 0.70 0.73 0.80 0.84 0.90 0.93 0.99 1.07 1.19 1.29 1.29 1.28 1.23 1.12 1.01 0.93 0.92 0.84 0.64 0.48 0.43 0.42 0.40 0.34 0.21 0.20 0.30 0.33 0.32 0.34 0.34
0.54 0.64 0.80 0.98 1.13 0.81 0.45 0.41 0.42 0.47 0.48 0.47 0.54 0.56 0.60 0.65 0.74 0.88 1.00 1.04 1.04 1.02 1.04 1.00 0.92 0.87 0.85 0.80 0.76 0.72 0.62 0.47 0.41 0.41 0.42 0.37 0.31 0.25 0.20 0.24 0.27 0.27 0.29 0.26
0.69 0.52 0.64 0.84 0.90 0.64 0.43 0.36 0.35 0.35 0.35 0.39 0.48 0.53 0.51 0.53 0.56 0.67 0.76 0.84 0.86 0.85 0.80 0.75 0.68 0.65 0.63 0.60 0.56 0.52 0.42 0.38 0.41 0.43 0.40 0.39 0.37 0.30 0.23 0.20 0.17 0.18 0.21 0.22
0.67 0.68 0.80 0.92 0.90 0.71 0.57 0.42 0.35 0.34 0.35 0.41 0.46 0.45 0.42 0.39 0.41 0.47 0.56 0.60 0.62 0.60 0.56 0.53 0.52 0.49 0.45 0.40 0.38 0.36 0.33 0.32 0.38 0.36 0.31 0.28 0.25 0.24 0.23 0.18 0.10 0.09 0.11 0.10
0.54 0.64 0.86 1.01 0.82 0.70 0.62 0.49 0.39 0.36 0.35 0.35 0.32 0.32 0.36 0.37 0.37 0.41 0.47 0.51 0.50 0.45 0.44 0.46 0.47 0.43 0.40 0.36 0.30 0.25 0.22 0.24 0.32 0.30 0.24 0.18 0.15 0.14 0.14 0.19 0.14 0.06 0.04 0.04

GEFSCGP_prec_meanprecacc_174.txt.gz
Total_Precipitation_Accumulation
0.00 0.00 0.01 0.02 0.03 0.02 0.03 0.09 0.10 0.10 0.10 0.14 0.20 0.24 0.40 0.47 0.54 0.60 0.60 0.75 0.85 0.88 1.16 1.42 1.86 2.57 2.86 3.35 3.29 2.93 2.71 2.65 2.61 2.58 2.62 2.65 2.83 3.03 3.18 3.25 3.09 3.02 2.95 2.94
0.00 0.00 0.00 0.01 0.03 0.02 0.03 0.06 0.08 0.09 0.11 0.15 0.23 0.32 0.46 0.59 0.65 0.67 0.68 0.80 0.81 0.86 1.25 1.64 2.02 2.40 2.62 2.74 2.83 3.05 3.05 2.96 2.84 2.89 3.18 3.60 3.84 3.89 3.97 3.92 3.85 3.71 3.62 3.55
0.01 0.00 0.00 0.01 0.02 0.02 0.02 0.03 0.05 0.09 0.14 0.18 0.29 0.47 0.54 0.64 0.76 0.71 0.63 0.70 0.79 0.94 1.19 1.49 1.84 2.11 2.44 2.77 2.88 3.09 3.18 3.29 3.45 3.66 3.88 4.35 4.67 4.66 4.51 4.14 3.96 3.77 3.51 3.37
0.00 0.00 0.00 0.00 0.01 0.01 0.02 0.02 0.05 0.08 0.11 0.19 0.25 0.50 0.68 0.76 0.79 0.79 0.75 0.76 0.87 1.03 1.22 1.35 1.51 1.69 1.97 2.29 2.60 2.85 3.03 3.29 3.71 4.29 4.62 4.74 4.92 4.86 4.70 4.37 3.99 3.61 3.30 3.07
0.00 0.00 0.00 0.01 0.01 0.02 0.02 0.02 0.04 0.06 0.07 0.18 0.24 0.40 0.82 0.93 0.84 0.84 0.86 0.91 1.04 1.05 1.15 1.21 1.17 1.30 1.61 1.89 2.12 2.47 2.81 3.19 3.74 4.23 4.66 4.90 4.88 4.67 4.48 4.07 3.66 3.33 3.08 2.81
0.01 0.01 0.01 0.01 0.02 0.01 0.02 0.03 0.04 0.07 0.10 0.22 0.21 0.33 0.75 0.99 0.96 0.83 0.79 0.91 1.06 1.00 0.94 0.96 0.99 1.07 1.30 1.51 1.75 2.02 2.42 2.99 3.42 3.83 4.25 4.40 4.42 4.29 4.08 3.67 3.33 3.07 2.86 2.63
0.03 0.02 0.02 0.02 0.02 0.02 0.02 0.05 0.14 0.22 0.25 0.28 0.20 0.37 0.81 1.01 1.04 0.97 0.98 1.07 1.04 0.90 0.82 0.88 0.89 1.02 1.26 1.46 1.72 1.95 2.29 2.68 2.90 3.04 3.28 3.52 3.57 3.54 3.50 3.34 3.05 2.75 2.47 2.15
0.08 0.07 0.03 0.02 0.02 0.03 0.03 0.05 0.20 0.36 0.34 0.32 0.34 0.66 1.09 1.13 1.12 1.06 0.99 0.96 0.92 0.90 0.92 0.95 1.02 1.15 1.38 1.51 1.57 1.70 1.88 2.14 2.27 2.27 2.43 2.64 2.75 2.78 2.75 2.61 2.38 2.12 1.90 1.70
0.11 0.10 0.03 0.02 0.02 0.03 0.03 0.03 0.06 0.13 0.17 0.32 0.61 1.01 1.30 1.31 1.31 1.32 1.21 1.06 0.93 0.88 0.95 1.00 1.03 1.14 1.37 1.45 1.50 1.46 1.42 1.52 1.61 1.67 1.73 1.77 1.82 1.87 1.87 1.79 1.66 1.54 1.41 1.26
0.06 0.08 0.04 0.03 0.02 0.03 0.03 0.04 0.06 0.10 0.26 0.44 0.67 1.12 1.65 1.67 1.50 1.44 1.35 1.15 1.02 0.95 0.96 1.01 1.00 1.02 1.07 1.12 1.21 1.20 1.08 1.11 1.16 1.14 1.13 1.17 1.26 1.36 1.35 1.21 1.14 1.11 1.06 0.98
0.04 0.06 0.05 0.05 0.04 0.04 0.04 0.05 0.06 0.11 0.18 0.35 0.65 1.17 1.45 1.61 1.52 1.40 1.32 1.19 1.00 0.96 0.95 0.92 0.91 0.85 0.79 0.77 0.84 0.91 0.88 0.86 0.86 0.87 0.90 0.89 0.91 0.95 0.98 0.94 0.86 0.81 0.77 0.74
0.04 0.08 0.12 0.11 0.07 0.06 0.06 0.07 0.07 0.14 0.19 0.25 0.53 1.14 1.22 1.45 1.60 1.61 1.42 1.24 1.16 1.05 0.98 0.93 0.92 0.86 0.80 0.75 0.75 0.76 0.78 0.80 0.77 0.73 0.76 0.77 0.74 0.71 0.72 0.75 0.74 0.69 0.67 0.66
0.06 0.14 0.30 0.36 0.25 0.14 0.10 0.09 0.10 0.12 0.21 0.29 0.54 1.16 1.27 1.41 1.62 1.64 1.45 1.34 1.30 1.24 1.18 1.09 1.00 0.94 0.88 0.80 0.74 0.69 0.71 0.75 0.72 0.66 0.67 0.65 0.64 0.60 0.59 0.60 0.59 0.57 0.57 0.57
0.06 0.15 0.38 0.65 0.54 0.26 0.16 0.14 0.16 0.18 0.29 0.36 0.56 0.99 1.24 1.40 1.57 1.64 1.57 1.37 1.32 1.35 1.29 1.16 1.06 0.97 0.89 0.84 0.80 0.77 0.74 0.71 0.65 0.63 0.62 0.60 0.62 0.60 0.56 0.53 0.52 0.51 0.51 0.54
0.10 0.20 0.23 0.28 0.28 0.24 0.19 0.18 0.18 0.22 0.27 0.45 0.68 0.99 1.33 1.44 1.62 1.77 1.80 1.65 1.48 1.43 1.35 1.22 1.18 1.11 1.00 0.96 0.92 0.86 0.79 0.74 0.67 0.63 0.62 0.63 0.66 0.66 0.64 0.62 0.60 0.58 0.55 0.51
0.11 0.19 0.23 0.26 0.25 0.27 0.24 0.22 0.20 0.26 0.33 0.48 0.74 1.13 1.41 1.53 1.60 1.70 1.78 1.69 1.58 1.55 1.53 1.54 1.55 1.48 1.33 1.18 1.09 0.98 0.88 0.82 0.75 0.75 0.74 0.71 0.68 0.65 0.64 0.63 0.61 0.62 0.59 0.55
0.11 0.19 0.29 0.31 0.22 0.33 0.51 0.39 0.35 0.40 0.46 0.60 0.85 1.07 1.21 1.37 1.56 1.58 1.60 1.70 1.69 1.76 1.84 1.85 1.78 1.66 1.49 1.37 1.30 1.20 1.07 0.97 0.92 0.90 0.84 0.76 0.68 0.65 0.62 0.55 0.58 0.62 0.59 0.54
0.14 0.25 0.33 0.39 0.43 0.70 0.67 0.41 0.41 0.55 0.65 0.67 0.74 0.81 1.00 1.25 1.39 1.40 1.48 1.67 1.75 1.74 1.74 1.72 1.63 1.54 1.45 1.39 1.31 1.18 1.06 0.99 0.93 0.89 0.82 0.71 0.63 0.63 0.63 0.62 0.62 0.60 0.56 0.52
0.11 0.26 0.42 0.51 0.70 0.78 0.78 0.50 0.46 0.65 0.85 0.68 0.74 0.77 0.90 1.02 1.18 1.42 1.49 1.61 1.77 1.66 1.61 1.64 1.63 1.56 1.50 1.41 1.27 1.17 1.08 0.96 0.92 0.87 0.74 0.61 0.54 0.55 0.56 0.56 0.54 0.52 0.52 0.50
0.13 0.23 0.48 0.64 0.83 0.96 0.88 0.47 0.37 0.64 1.17 0.86 0.84 0.86 0.88 0.97 1.26 1.39 1.34 1.31 1.37 1.41 1.48 1.61 1.71 1.74 1.66 1.51 1.25 1.15 1.06 0.92 0.80 0.68 0.58 0.53 0.50 0.46 0.43 0.42 0.46 0.47 0.48 0.45
0.37 0.41 0.54 0.77 1.04 1.11 0.58 0.31 0.43 0.94 1.16 0.96 0.91 0.92 0.91 1.04 1.12 1.02 1.02 1.12 1.23 1.36 1.48 1.58 1.61 1.59 1.53 1.41 1.22 1.12 1.00 0.85 0.67 0.54 0.49 0.49 0.42 0.34 0.31 0.35 0.41 0.42 0.38 0.37
0.57 0.69 0.76 0.87 1.11 1.20 0.52 0.36 0.60 0.75 0.64 0.63 0.67 0.71 0.74 0.82 0.86 0.92 0.95 1.01 1.08 1.22 1.34 1.40 1.37 1.32 1.20 1.11 1.04 0.99 0.88 0.67 0.52 0.47 0.46 0.44 0.37 0.23 0.21 0.30 0.34 0.33 0.36 0.35
0.55 0.64 0.81 0.99 1.14 0.81 0.46 0.42 0.43 0.48 0.48 0.48 0.54 0.57 0.60 0.65 0.75 0.89 1.01 1.06 1.06 1.05 1.08 1.09 1.02 0.95 0.93 0.87 0.84 0.79 0.66 0.50 0.44 0.43 0.44 0.39 0.33 0.27 0.21 0.25 0.28 0.28 0.30 0.26
0.70 0.53 0.65 0.85 0.90 0.64 0.43 0.36 0.36 0.35 0.36 0.39 0.49 0.53 0.52 0.53 0.57 0.68 0.77 0.86 0.89 0.87 0.84 0.81 0.77 0.72 0.71 0.68 0.64 0.58 0.46 0.41 0.43 0.45 0.42 0.39 0.37 0.31 0.23 0.21 0.17 0.19 0.22 0.23
0.68 0.68 0.81 0.93 0.91 0.72 0.57 0.43 0.35 0.35 0.35 0.41 0.47 0.46 0.43 0.39 0.42 0.48 0.58 0.62 0.64 0.61 0.58 0.56 0.58 0.56 0.51 0.47 0.45 0.41 0.36 0.34 0.41 0.38 0.32 0.29 0.26 0.25 0.24 0.19 0.11 0.10 0.11 0.10
0.54 0.64 0.86 1.02 0.83 0.71 0.63 0.50 0.40 0.37 0.35 0.35 0.33 0.33 0.37 0.37 0.37 0.42 0.49 0.53 0.51 0.47 0.46 0.49 0.50 0.48 0.46 0.42 0.36 0.30 0.25 0.26 0.33 0.31 0.25 0.20 0.17 0.16 0.16 0.20 0.15 0.06 0.04 0.04

GEFSCGP_prec_meanprecacc_180.txt.gz
Total_Precipitation_Accumulation
0.00 0.00 0.01 0.02 0.03 0.02 0.03 0.09 0.11 0.12 0.12 0.16 0.23 0.27 0.43 0.50 0.58 0.63 0.62 0.77 0.86 0.89 1.18 1.43 1.88 2.60 2.90 3.39 3.32 2.97 2.76 2.70 2.66 2.65 2.69 2.70 2.89 3.08 3.22 3.28 3.13 3.06 2.98 2.97
0.00 0.00 0.00 0.01 0.03 0.02 0.04 0.07 0.09 0.11 0.13 0.17 0.26 0.34 0.49 0.61 0.68 0.69 0.69 0.81 0.82 0.87 1.26 1.66 2.05 2.43 2.65 2.78 2.87 3.08 3.09 3.01 2.89 2.94 3.23 3.65 3.90 3.93 4.01 3.96 3.89 3.75 3.64 3.58
0.01 0.00 0.00 0.01 0.02 0.02 0.03 0.04 0.06 0.11 0.16 0.21 0.31 0.49 0.56 0.66 0.79 0.73 0.65 0.72 0.80 0.96 1.21 1.51 1.88 2.14 2.46 2.80 2.90 3.12 3.22 3.35 3.51 3.72 3.94 4.41 4.72 4.70 4.54 4.17 3.99 3.80 3.54 3.40
0.00 0.00 0.00 0.00 0.01 0.01 0.02 0.02 0.06 0.08 0.12 0.22 0.27 0.53 0.70 0.78 0.81 0.80 0.76 0.77 0.89 1.05 1.24 1.38 1.54 1.72 1.99 2.32 2.61 2.88 3.09 3.37 3.79 4.38 4.69 4.81 4.98 4.91 4.75 4.41 4.04 3.67 3.36 3.13
0.00 0.00 0.00 0.01 0.01 0.02 0.02 0.02 0.04 0.06 0.07 0.20 0.26 0.42 0.83 0.94 0.85 0.85 0.87 0.92 1.07 1.07 1.18 1.25 1.21 1.33 1.64 1.92 2.15 2.51 2.86 3.25 3.82 4.30 4.74 4.98 4.97 4.75 4.56 4.14 3.74 3.41 3.14 2.87
0.01 0.01 0.01 0.01 0.02 0.01 0.02 0.03 0.05 0.07 0.10 0.23 0.23 0.35 0.78 1.03 0.98 0.84 0.79 0.92 1.08 1.04 0.98 1.00 1.03 1.11 1.33 1.55 1.80 2.07 2.48 3.06 3.49 3.90 4.32 4.47 4.51 4.42 4.20 3.78 3.45 3.17 2.94 2.69
0.03 0.03 0.02 0.02 0.03 0.02 0.03 0.05 0.15 0.23 0.26 0.29 0.21 0.38 0.83 1.05 1.08 0.99 0.98 1.08 1.05 0.93 0.86 0.93 0.93 1.05 1.28 1.49 1.78 2.03 2.37 2.78 3.01 3.13 3.35 3.59 3.64 3.61 3.58 3.42 3.15 2.85 2.56 2.23
0.09 0.07 0.03 0.02 0.02 0.03 0.03 0.05 0.21 0.37 0.35 0.32 0.34 0.67 1.09 1.14 1.13 1.07 1.00 0.97 0.92 0.92 0.95 0.98 1.05 1.16 1.40 1.54 1.62 1.76 1.95 2.25 2.38 2.36 2.53 2.74 2.85 2.84 2.81 2.67 2.43 2.16 1.94 1.74
0.11 0.11 0.04 0.02 0.02 0.03 0.03 0.03 0.07 0.13 0.17 0.33 0.61 1.01 1.30 1.32 1.32 1.33 1.22 1.07 0.94 0.90 0.98 1.03 1.07 1.17 1.39 1.49 1.54 1.49 1.46 1.58 1.67 1.74 1.82 1.86 1.91 1.94 1.92 1.83 1.70 1.59 1.44 1.28
0.07 0.09 0.05 0.03 0.03 0.03 0.03 0.04 0.06 0.11 0.28 0.46 0.67 1.13 1.66 1.68 1.51 1.45 1.36 1.16 1.03 0.96 0.98 1.03 1.03 1.05 1.10 1.16 1.26 1.24 1.11 1.16 1.21 1.20 1.18 1.22 1.31 1.40 1.37 1.24 1.18 1.15 1.09 1.00
0.05 0.07 0.06 0.05 0.04 0.05 0.05 0.05 0.06 0.11 0.18 0.36 0.66 1.18 1.45 1.62 1.53 1.40 1.33 1.21 1.01 0.97 0.96 0.94 0.93 0.88 0.82 0.82 0.88 0.96 0.93 0.91 0.90 0.91 0.93 0.92 0.93 0.97 1.00 0.97 0.90 0.85 0.80 0.77
0.06 0.09 0.12 0.11 0.08 0.06 0.06 0.07 0.07 0.15 0.20 0.26 0.54 1.15 1.23 1.46 1.61 1.62 1.43 1.25 1.17 1.05 0.99 0.96 0.95 0.90 0.84 0.79 0.80 0.81 0.82 0.83 0.80 0.75 0.79 0.80 0.77 0.74 0.75 0.79 0.79 0.73 0.71 0.70
0.07 0.15 0.31 0.37 0.26 0.14 0.10 0.09 0.10 0.12 0.21 0.30 0.55 1.18 1.28 1.42 1.63 1.65 1.46 1.35 1.31 1.26 1.20 1.12 1.05 0.99 0.91 0.83 0.78 0.73 0.74 0.77 0.74 0.68 0.68 0.67 0.66 0.63 0.62 0.64 0.64 0.62 0.62 0.62
0.08 0.18 0.39 0.66 0.55 0.26 0.16 0.14 0.16 0.18 0.30 0.37 0.57 1.01 1.26 1.42 1.59 1.67 1.59 1.40 1.35 1.38 1.33 1.20 1.11 1.02 0.93 0.88 0.84 0.82 0.78 0.73 0.67 0.63 0.63 0.62 0.64 0.62 0.58 0.55 0.53 0.53 0.54 0.56
0.11 0.22 0.25 0.29 0.29 0.24 0.19 0.18 0.18 0.22 0.27 0.46 0.69 1.01 1.35 1.46 1.63 1.78 1.81 1.67 1.50 1.45 1.38 1.26 1.22 1.16 1.04 1.00 0.97 0.93 0.84 0.76 0.68 0.64 0.63 0.66 0.70 0.69 0.66 0.64 0.62 0.60 0.57 0.52
0.12 0.20 0.24 0.27 0.26 0.28 0.25 0.22 0.20 0.26 0.33 0.49 0.75 1.14 1.42 1.54 1.61 1.71 1.79 1.70 1.60 1.58 1.55 1.57 1.60 1.53 1.36 1.22 1.14 1.03 0.91 0.84 0.77 0.76 0.75 0.74 0.74 0.70 0.68 0.65 0.64 0.64 0.61 0.56
0.12 0.20 0.30 0.32 0.23 0.35 0.52 0.40 0.35 0.40 0.46 0.61 0.87 1.09 1.22 1.38 1.57 1.59 1.61 1.72 1.72 1.78 1.86 1.88 1.82 1.70 1.52 1.40 1.35 1.25 1.11 1.00 0.95 0.92 0.85 0.78 0.72 0.68 0.65 0.58 0.61 0.64 0.61 0.55
0.15 0.27 0.35 0.41 0.44 0.72 0.68 0.41 0.41 0.56 0.66 0.68 0.75 0.82 1.01 1.26 1.41 1.42 1.50 1.70 1.79 1.77 1.77 1.76 1.67 1.58 1.49 1.44 1.37 1.23 1.10 1.04 0.97 0.91 0.83 0.72 0.64 0.64 0.64 0.64 0.64 0.61 0.57 0.53
0.12 0.28 0.44 0.53 0.72 0.79 0.78 0.50 0.46 0.67 0.86 0.69 0.75 0.78 0.91 1.03 1.20 1.45 1.53 1.66 1.82 1.71 1.65 1.68 1.67 1.59 1.54 1.48 1.36 1.24 1.13 1.00 0.95 0.88 0.74 0.62 0.56 0.56 0.57 0.58 0.56 0.54 0.54 0.52
0.14 0.25 0.51 0.67 0.85 0.98 0.89 0.48 0.38 0.67 1.20 0.88 0.86 0.88 0.89 0.98 1.28 1.42 1.38 1.35 1.41 1.45 1.51 1.64 1.73 1.76 1.68 1.55 1.32 1.21 1.09 0.93 0.81 0.68 0.58 0.53 0.51 0.48 0.45 0.44 0.47 0.48 0.49 0.46
0.38 0.42 0.56 0.79 1.06 1.12 0.58 0.31 0.45 0.98 1.19 0.99 0.93 0.94 0.93 1.05 1.14 1.04 1.03 1.14 1.25 1.39 1.51 1.62 1.64 1.61 1.56 1.46 1.26 1.16 1.03 0.86 0.68 0.55 0.50 0.50 0.44 0.36 0.32 0.36 0.42 0.43 0.39 0.38
0.58 0.70 0.77 0.88 1.13 1.22 0.53 0.37 0.61 0.76 0.66 0.65 0.68 0.72 0.75 0.82 0.86 0.92 0.96 1.03 1.09 1.24 1.38 1.46 1.41 1.34 1.24 1.15 1.08 1.03 0.91 0.69 0.53 0.48 0.47 0.45 0.38 0.24 0.22 0.31 0.35 0.34 0.36 0.35
0.57 0.66 0.82 1.00 1.15 0.82 0.46 0.43 0.43 0.48 0.50 0.49 0.55 0.57 0.61 0.66 0.76 0.90 1.03 1.08 1.08 1.06 1.12 1.14 1.05 0.97 0.96 0.91 0.88 0.84 0.70 0.53 0.46 0.44 0.45 0.40 0.34 0.28 0.22 0.26 0.29 0.29 0.30 0.27
0.73 0.55 0.67 0.87 0.91 0.65 0.45 0.37 0.36 0.36 0.37 0.40 0.50 0.54 0.53 0.54 0.58 0.69 0.78 0.87 0.91 0.89 0.87 0.84 0.79 0.74 0.73 0.71 0.68 0.62 0.51 0.45 0.46 0.47 0.43 0.40 0.39 0.33 0.25 0.22 0.18 0.19 0.23 0.24
0.70 0.71 0.83 0.95 0.92 0.72 0.58 0.43 0.36 0.35 0.35 0.41 0.47 0.46 0.44 0.40 0.42 0.49 0.59 0.63 0.66 0.63 0.60 0.60 0.61 0.58 0.54 0.51 0.51 0.48 0.41 0.38 0.43 0.40 0.33 0.30 0.27 0.27 0.27 0.21 0.12 0.10 0.12 0.11
0.55 0.66 0.89 1.03 0.84 0.72 0.64 0.51 0.41 0.38 0.36 0.36 0.33 0.33 0.37 0.37 0.38 0.42 0.50 0.54 0.53 0.48 0.47 0.51 0.53 0.51 0.49 0.47 0.44 0.39 0.31 0.30 0.36 0.33 0.27 0.22 0.18 0.17 0.17 0.22 0.16 0.07 0.04 0.04

GEFSCGP_prec_meanprecacc_186.txt.gz
Total_Precipitation_Accumulation
0.00 0.01 0.01 0.03 0.04 0.03 0.05 0.11 0.12 0.13 0.13 0.18 0.25 0.31 0.50 0.56 0.64 0.68 0.66 0.81 0.93 0.99 1.28 1.49 1.91 2.61 2.93 3.44 3.36 3.04 2.83 2.76 2.73 2.72 2.76 2.78 2.97 3.15 3.28 3.33 3.17 3.09 3.01 3.01
0.00 0.01 0.01 0.01 0.03 0.03 0.04 0.08 0.09 0.11 0.13 0.18 0.28 0.37 0.55 0.67 0.75 0.76 0.74 0.85 0.86 0.90 1.31 1.70 2.08 2.47 2.70 2.83 2.92 3.14 3.16 3.08 2.96 3.02 3.33 3.76 4.00 4.02 4.08 4.01 3.93 3.78 3.67 3.61
0.01 0.00 0.00 0.01 0.02 0.02 0.03 0.04 0.07 0.11 0.16 0.22 0.35 0.54 0.64 0.75 0.86 0.81 0.72 0.78 0.84 0.97 1.23 1.55 1.93 2.21 2.52 2.85 2.95 3.16 3.27 3.41 3.60 3.81 4.04 4.51 4.83 4.79 4.61 4.22 4.02 3.83 3.57 3.43
0.00 0.00 0.00 0.01 0.01 0.02 0.03 0.03 0.06 0.09 0.13 0.24 0.30 0.57 0.75 0.83 0.88 0.84 0.79 0.80 0.92 1.06 1.26 1.40 1.59 1.79 2.06 2.37 2.67 2.93 3.13 3.42 3.86 4.45 4.77 4.91 5.06 4.97 4.79 4.46 4.09 3.71 3.39 3.17
0.00 0.00 0.00 0.01 0.01 0.02 0.03 0.03 0.05 0.07 0.08 0.22 0.29 0.45 0.87 0.97 0.93 0.92 0.91 0.94 1.09 1.09 1.19 1.28 1.26 1.39 1.70 1.97 2.20 2.56 2.90 3.30 3.90 4.41 4.84 5.10 5.07 4.85 4.64 4.22 3.83 3.48 3.19 2.92
0.01 0.01 0.01 0.01 0.02 0.02 0.03 0.04 0.06 0.08 0.12 0.29 0.27 0.38 0.85 1.10 1.04 0.89 0.83 0.94 1.10 1.07 1.02 1.06 1.08 1.16 1.38 1.59 1.85 2.13 2.54 3.13 3.57 4.01 4.42 4.58 4.62 4.54 4.34 3.94 3.60 3.30 3.02 2.75
0.04 0.03 0.02 0.02 0.03 0.03 0.05 0.08 0.20 0.29 0.33 0.35 0.22 0.40 0.89 1.10 1.10 1.02 1.02 1.12 1.09 0.98 0.91 0.99 0.98 1.09 1.33 1.54 1.84 2.11 2.46 2.87 3.09 3.22 3.45 3.70 3.76 3.75 3.73 3.60 3.32 3.01 2.66 2.30
0.09 0.08 0.03 0.02 0.03 0.04 0.05 0.08 0.26 0.43 0.40 0.37 0.36 0.71 1.13 1.16 1.14 1.09 1.04 1.03 0.98 0.95 0.98 1.02 1.09 1.20 1.44 1.60 1.71 1.85 2.05 2.34 2.47 2.45 2.62 2.86 2.99 3.01 2.97 2.82 2.55 2.26 2.03 1.82
0.12 0.11 0.04 0.02 0.03 0.03 0.04 0.05 0.08 0.15 0.20 0.37 0.65 1.06 1.34 1.34 1.34 1.35 1.25 1.12 0.99 0.93 1.01 1.08 1.13 1.21 1.44 1.55 1.62 1.59 1.55 1.67 1.75 1.82 1.89 1.95 2.00 2.03 2.00 1.92 1.79 1.66 1.50 1.33
0.07 0.09 0.05 0.03 0.03 0.03 0.04 0.05 0.07 0.15 0.33 0.52 0.72 1.19 1.72 1.72 1.53 1.47 1.38 1.19 1.08 1.01 1.03 1.09 1.10 1.11 1.15 1.21 1.32 1.32 1.20 1.25 1.29 1.26 1.25 1.28 1.36 1.45 1.42 1.29 1.23 1.20 1.14 1.03
0.05 0.09 0.07 0.06 0.04 0.05 0.05 0.06 0.07 0.14 0.23 0.43 0.74 1.25 1.48 1.65 1.56 1.44 1.37 1.25 1.05 1.02 1.01 0.99 0.99 0.92 0.86 0.85 0.92 1.01 1.00 0.98 0.98 0.98 0.99 0.97 0.98 1.01 1.03 1.01 0.93 0.89 0.84 0.80
0.06 0.10 0.14 0.12 0.09 0.07 0.07 0.07 0.08 0.19 0.23 0.30 0.63 1.24 1.27 1.49 1.67 1.69 1.50 1.34 1.28 1.15 1.09 1.01 1.00 0.94 0.86 0.82 0.83 0.86 0.88 0.90 0.87 0.83 0.86 0.85 0.81 0.77 0.78 0.81 0.81 0.76 0.74 0.73
0.09 0.17 0.35 0.42 0.31 0.18 0.11 0.10 0.10 0.13 0.23 0.34 0.64 1.26 1.32 1.46 1.71 1.73 1.54 1.43 1.40 1.34 1.28 1.18 1.11 1.03 0.94 0.86 0.80 0.76 0.78 0.83 0.80 0.74 0.74 0.72 0.70 0.66 0.65 0.66 0.66 0.64 0.64 0.64
0.09 0.19 0.42 0.70 0.60 0.32 0.18 0.15 0.16 0.19 0.32 0.41 0.61 1.06 1.31 1.47 1.63 1.70 1.63 1.44 1.39 1.42 1.38 1.25 1.16 1.08 0.98 0.90 0.86 0.85 0.81 0.76 0.71 0.68 0.68 0.67 0.69 0.66 0.61 0.57 0.56 0.56 0.56 0.58
0.13 0.24 0.26 0.29 0.30 0.27 0.21 0.19 0.19 0.22 0.28 0.47 0.72 1.05 1.39 1.49 1.67 1.82 1.85 1.70 1.53 1.48 1.42 1.30 1.27 1.21 1.10 1.06 1.01 0.96 0.87 0.79 0.72 0.68 0.67 0.71 0.73 0.72 0.69 0.67 0.64 0.62 0.59 0.54
0.15 0.23 0.26 0.27 0.27 0.28 0.26 0.22 0.21 0.27 0.34 0.50 0.77 1.17 1.44 1.56 1.63 1.74 1.82 1.73 1.62 1.62 1.60 1.62 1.64 1.58 1.43 1.28 1.19 1.08 0.94 0.86 0.80 0.79 0.78 0.78 0.77 0.73 0.70 0.67 0.65 0.65 0.63 0.58
0.14 0.22 0.32 0.34 0.25 0.37 0.56 0.42 0.36 0.41 0.46 0.62 0.89 1.11 1.24 1.41 1.60 1.63 1.65 1.75 1.76 1.83 1.90 1.93 1.87 1.77 1.59 1.48 1.41 1.30 1.15 1.03 0.98 0.95 0.88 0.82 0.75 0.71 0.66 0.59 0.62 0.66 0.62 0.57
0.16 0.28 0.37 0.42 0.46 0.79 0.73 0.43 0.42 0.56 0.67 0.69 0.76 0.84 1.04 1.30 1.45 1.46 1.54 1.74 1.85 1.82 1.81 1.81 1.73 1.66 1.56 1.51 1.43 1.29 1.15 1.07 1.00 0.94 0.86 0.76 0.66 0.65 0.66 0.65 0.66 0.63 0.59 0.55
0.13 0.30 0.47 0.56 0.76 0.83 0.81 0.52 0.48 0.69 0.89 0.70 0.75 0.79 0.93 1.05 1.23 1.50 1.56 1.70 1.87 1.75 1.69 1.74 1.72 1.65 1.61 1.54 1.40 1.30 1.18 1.05 0.99 0.92 0.77 0.65 0.58 0.58 0.58 0.59 0.58 0.56 0.56 0.54
0.15 0.27 0.56 0.71 0.92 1.05 0.94 0.50 0.39 0.69 1.25 0.90 0.87 0.90 0.90 1.00 1.33 1.48 1.43 1.40 1.47 1.52 1.58 1.71 1.79 1.80 1.73 1.60 1.37 1.28 1.15 0.97 0.84 0.70 0.60 0.56 0.54 0.50 0.46 0.46 0.48 0.49 0.51 0.48
0.45 0.49 0.63 0.83 1.13 1.17 0.61 0.33 0.46 1.02 1.26 1.03 0.95 0.97 0.99 1.12 1.21 1.11 1.07 1.18 1.31 1.46 1.58 1.68 1.70 1.67 1.60 1.50 1.31 1.22 1.07 0.90 0.71 0.57 0.52 0.52 0.46 0.38 0.34 0.38 0.43 0.44 0.41 0.40
0.66 0.79 0.86 0.96 1.24 1.30 0.55 0.38 0.64 0.83 0.72 0.68 0.70 0.75 0.80 0.86 0.90 0.96 0.99 1.05 1.13 1.28 1.43 1.51 1.47 1.40 1.29 1.21 1.13 1.07 0.94 0.72 0.56 0.50 0.49 0.48 0.42 0.26 0.23 0.33 0.37 0.36 0.39 0.38
0.64 0.75 0.94 1.12 1.27 0.90 0.50 0.46 0.47 0.52 0.54 0.51 0.57 0.59 0.63 0.69 0.79 0.93 1.05 1.10 1.11 1.09 1.17 1.20 1.11 1.02 1.01 0.97 0.92 0.87 0.74 0.57 0.49 0.48 0.49 0.44 0.37 0.30 0.23 0.27 0.31 0.32 0.33 0.30
0.80 0.64 0.80 0.99 1.03 0.78 0.54 0.47 0.43 0.41 0.40 0.43 0.52 0.56 0.54 0.56 0.61 0.74 0.83 0.91 0.94 0.92 0.91 0.89 0.83 0.77 0.77 0.75 0.72 0.65 0.54 0.49 0.50 0.51 0.47 0.44 0.41 0.34 0.27 0.25 0.21 0.22 0.25 0.26
0.77 0.78 0.94 1.06 1.07 0.88 0.71 0.55 0.44 0.41 0.40 0.45 0.49 0.47 0.45 0.41 0.43 0.50 0.61 0.67 0.69 0.66 0.63 0.63 0.64 0.61 0.56 0.54 0.54 0.50 0.44 0.40 0.47 0.46 0.38 0.33 0.30 0.28 0.29 0.23 0.14 0.12 0.13 0.13
0.59 0.72 0.95 1.13 0.94 0.81 0.71 0.57 0.44 0.40 0.38 0.36 0.33 0.34 0.38 0.38 0.38 0.43 0.51 0.56 0.56 0.52 0.50 0.54 0.56 0.53 0.50 0.49 0.47 0.41 0.34 0.32 0.39 0.39 0.32 0.25 0.21 0.20 0.19 0.23 0.17 0.08 0.05 0.05